Time,TemperatureF,DewpointF,PressureIn,WindDirection,WindDirectionDegrees,WindSpeedMPH,WindSpeedGustMPH,Humidity,HourlyPrecipIn,Conditions,Clouds,dailyrainin,SoftwareType,DateUTC
2013-04-05 00:11:00,40.1,23.0,30.05,NW,315,8.9,-999.0,50,-99.99,,,0.00,Acu-Link.com,2013-04-05 04:11:00,
2013-04-05 01:11:00,39.2,24.8,30.04,SW,225,2.2,-999.0,56,-99.99,,,0.00,Acu-Link.com,2013-04-05 05:11:00,
2013-04-05 01:27:00,38.8,25.3,30.03,WSW,247,5.3,-999.0,58,-99.99,,,0.00,Acu-Link.com,2013-04-05 05:27:00,
2013-04-05 01:42:00,38.5,25.8,30.02,South,180,3.7,-999.0,60,-99.99,,,0.00,Acu-Link.com,2013-04-05 05:42:00,
2013-04-05 01:57:00,38.1,26.3,30.02,NW,315,2.7,-999.0,62,-99.99,,,0.00,Acu-Link.com,2013-04-05 05:57:00,
2013-04-05 02:12:00,37.8,26.7,30.01,WNW,292,2.2,-999.0,64,-99.99,,,0.00,Acu-Link.com,2013-04-05 06:12:00,
2013-04-05 02:27:00,37.6,27.3,30.00,WSW,247,2.7,-999.0,66,-99.99,,,0.00,Acu-Link.com,2013-04-05 06:27:00,
2013-04-05 02:43:00,37.2,27.6,30.00,SSE,157,4.2,-999.0,68,-99.99,,,0.00,Acu-Link.com,2013-04-05 06:43:00,
2013-04-05 02:58:00,36.7,27.5,30.00,SSW,202,2.7,-999.0,69,-99.99,,,0.00,Acu-Link.com,2013-04-05 06:58:00,
2013-04-05 03:13:00,36.7,27.9,29.99,SW,225,1.7,-999.0,70,-99.99,,,0.00,Acu-Link.com,2013-04-05 07:13:00,
2013-04-05 04:14:00,35.8,27.7,29.97,SW,225,1.1,-999.0,72,-99.99,,,0.00,Acu-Link.com,2013-04-05 08:14:00,
2013-04-05 04:30:00,35.6,27.8,29.97,SW,225,1.7,-999.0,73,-99.99,,,0.00,Acu-Link.com,2013-04-05 08:30:00,
2013-04-05 04:45:00,36.0,27.9,29.97,SW,225,2.7,-999.0,72,-99.99,,,0.00,Acu-Link.com,2013-04-05 08:45:00,
2013-04-05 05:00:00,35.8,27.7,29.96,SSW,202,5.3,-999.0,72,-99.99,,,0.00,Acu-Link.com,2013-04-05 09:00:00,
2013-04-05 05:15:00,36.3,27.5,29.95,East,90,2.2,-999.0,70,-99.99,,,0.00,Acu-Link.com,2013-04-05 09:15:00,
2013-04-05 05:30:00,36.5,27.3,29.95,WSW,247,2.7,-999.0,69,-99.99,,,0.00,Acu-Link.com,2013-04-05 09:30:00,
2013-04-05 05:45:00,36.1,27.3,29.95,SSW,202,4.2,-999.0,70,-99.99,,,0.00,Acu-Link.com,2013-04-05 09:45:00,
2013-04-05 06:00:00,35.6,27.1,29.95,SSW,202,4.2,-999.0,71,-99.99,,,0.00,Acu-Link.com,2013-04-05 10:00:00,
2013-04-05 06:15:00,34.9,26.5,29.94,West,270,0.0,-999.0,71,-99.99,,,0.00,Acu-Link.com,2013-04-05 10:15:00,
2013-04-05 06:31:00,34.7,26.6,29.94,SSW,202,1.1,-999.0,72,-99.99,,,0.00,Acu-Link.com,2013-04-05 10:31:00,
2013-04-05 07:31:00,37.4,27.1,29.93,WNW,292,1.7,-999.0,66,-99.99,,,0.00,Acu-Link.com,2013-04-05 11:31:00,
2013-04-05 07:47:00,37.9,27.2,29.92,South,180,2.7,-999.0,65,-99.99,,,0.00,Acu-Link.com,2013-04-05 11:47:00,
2013-04-05 08:02:00,39.2,26.9,29.93,WSW,247,1.7,-999.0,61,-99.99,,,0.00,Acu-Link.com,2013-04-05 12:02:00,
2013-04-05 08:17:00,40.5,27.3,29.92,WNW,292,4.2,-999.0,59,-99.99,,,0.00,Acu-Link.com,2013-04-05 12:17:00,
2013-04-05 08:32:00,41.5,27.0,29.91,West,270,5.3,-999.0,56,-99.99,,,0.00,Acu-Link.com,2013-04-05 12:32:00,
2013-04-05 08:47:00,42.3,27.3,29.91,SE,135,3.7,-999.0,55,-99.99,,,0.00,Acu-Link.com,2013-04-05 12:47:00,
2013-04-05 09:03:00,43.0,26.6,29.91,WSW,247,5.3,-999.0,52,-99.99,,,0.00,Acu-Link.com,2013-04-05 13:03:00,
2013-04-05 09:18:00,43.5,26.6,29.90,SSW,202,2.2,-999.0,51,-99.99,,,0.00,Acu-Link.com,2013-04-05 13:18:00,
2013-04-05 09:33:00,44.1,26.2,29.90,WNW,292,1.7,-999.0,49,-99.99,,,0.00,Acu-Link.com,2013-04-05 13:33:00,
2013-04-05 10:19:00,47.5,25.6,29.88,SSW,202,2.2,-999.0,42,-99.99,,,0.00,Acu-Link.com,2013-04-05 14:19:00,
2013-04-05 10:49:00,46.6,24.8,29.86,WSW,247,4.7,-999.0,42,-99.99,,,0.00,Acu-Link.com,2013-04-05 14:49:00,
2013-04-05 11:20:00,50.0,26.0,29.85,WSW,247,6.8,-999.0,39,-99.99,,,0.00,Acu-Link.com,2013-04-05 15:20:00,
2013-04-05 11:35:00,50.4,25.8,29.85,West,270,6.8,-999.0,38,-99.99,,,0.00,Acu-Link.com,2013-04-05 15:35:00,
2013-04-05 12:20:00,52.3,26.2,29.81,NW,315,4.7,-999.0,36,-99.99,,,0.00,Acu-Link.com,2013-04-05 16:20:00,
2013-04-05 12:36:00,53.4,25.7,29.79,West,270,2.2,-999.0,34,-99.99,,,0.00,Acu-Link.com,2013-04-05 16:36:00,
2013-04-05 12:51:00,52.3,25.5,29.78,ESE,112,4.7,-999.0,35,-99.99,,,0.00,Acu-Link.com,2013-04-05 16:51:00,
2013-04-05 13:06:00,55.8,25.6,29.77,SSW,202,6.8,-999.0,31,-99.99,,,0.00,Acu-Link.com,2013-04-05 17:06:00,
2013-04-05 13:22:00,57.6,26.4,29.75,South,180,2.7,-999.0,30,-99.99,,,0.00,Acu-Link.com,2013-04-05 17:22:00,
2013-04-05 13:37:00,55.6,25.5,29.74,ENE,67,3.7,-999.0,31,-99.99,,,0.00,Acu-Link.com,2013-04-05 17:37:00,
2013-04-05 13:52:00,57.7,25.7,29.73,SW,225,2.7,-999.0,29,-99.99,,,0.00,Acu-Link.com,2013-04-05 17:52:00,
2013-04-05 14:07:00,58.8,25.8,29.71,West,270,5.8,-999.0,28,-99.99,,,0.00,Acu-Link.com,2013-04-05 18:07:00,
2013-04-05 14:22:00,58.6,23.8,29.70,SSE,157,3.7,-999.0,26,-99.99,,,0.00,Acu-Link.com,2013-04-05 18:22:00,
2013-04-05 14:38:00,59.9,24.0,29.69,NW,315,3.2,-999.0,25,-99.99,,,0.00,Acu-Link.com,2013-04-05 18:38:00,
2013-04-05 14:53:00,61.7,22.5,29.68,West,270,1.1,-999.0,22,-99.99,,,0.00,Acu-Link.com,2013-04-05 18:53:00,
2013-04-05 15:08:00,61.7,21.4,29.66,South,180,3.7,-999.0,21,-99.99,,,0.00,Acu-Link.com,2013-04-05 19:08:00,
2013-04-05 15:23:00,62.6,18.5,29.66,WNW,292,6.8,-999.0,18,-99.99,,,0.00,Acu-Link.com,2013-04-05 19:23:00,
2013-04-05 16:09:00,61.3,24.2,29.65,ENE,67,5.3,-999.0,24,-99.99,,,0.00,Acu-Link.com,2013-04-05 20:09:00,
2013-04-05 16:24:00,61.0,22.9,29.65,West,270,7.8,-999.0,23,-99.99,,,0.00,Acu-Link.com,2013-04-05 20:24:00,
2013-04-05 16:39:00,60.4,22.4,29.65,West,270,8.9,-999.0,23,-99.99,,,0.00,Acu-Link.com,2013-04-05 20:39:00,
2013-04-05 16:54:00,60.6,23.6,29.66,West,270,11.9,-999.0,24,-99.99,,,0.00,Acu-Link.com,2013-04-05 20:54:00,
2013-04-05 17:10:00,60.1,22.2,29.67,WSW,247,6.8,-999.0,23,-99.99,,,0.00,Acu-Link.com,2013-04-05 21:10:00,
2013-04-05 17:25:00,58.6,21.9,29.67,West,270,5.3,-999.0,24,-99.99,,,0.00,Acu-Link.com,2013-04-05 21:25:00,
2013-04-05 17:40:00,56.8,23.2,29.68,WNW,292,9.9,-999.0,27,-99.99,,,0.00,Acu-Link.com,2013-04-05 21:40:00,
2013-04-05 17:55:00,55.4,22.0,29.69,South,180,3.7,-999.0,27,-99.99,,,0.00,Acu-Link.com,2013-04-05 21:55:00,
2013-04-05 18:11:00,54.9,20.7,29.70,SW,225,7.3,-999.0,26,-99.99,,,0.00,Acu-Link.com,2013-04-05 22:11:00,
2013-04-05 18:26:00,54.3,20.2,29.70,West,270,6.8,-999.0,26,-99.99,,,0.00,Acu-Link.com,2013-04-05 22:26:00,
2013-04-05 18:56:00,52.7,19.7,29.72,NW,315,3.7,-999.0,27,-99.99,,,0.00,Acu-Link.com,2013-04-05 22:56:00,
2013-04-05 19:11:00,52.0,19.9,29.73,WNW,292,4.7,-999.0,28,-99.99,,,0.00,Acu-Link.com,2013-04-05 23:11:00,
2013-04-05 19:42:00,49.6,23.8,29.75,SW,225,4.2,-999.0,36,-99.99,,,0.00,Acu-Link.com,2013-04-05 23:42:00,
2013-04-05 19:57:00,48.7,24.2,29.77,NW,315,10.4,-999.0,38,-99.99,,,0.00,Acu-Link.com,2013-04-05 23:57:00,
2013-04-05 20:12:00,47.8,24.1,29.78,NNW,337,8.3,-999.0,39,-99.99,,,0.00,Acu-Link.com,2013-04-06 00:12:00,
2013-04-05 20:27:00,46.9,22.6,29.80,WSW,247,4.2,-999.0,38,-99.99,,,0.00,Acu-Link.com,2013-04-06 00:27:00,
2013-04-05 20:43:00,46.0,22.4,29.81,NW,315,7.8,-999.0,39,-99.99,,,0.00,Acu-Link.com,2013-04-06 00:43:00,
2013-04-05 20:58:00,45.1,22.8,29.83,NE,45,3.2,-999.0,41,-99.99,,,0.00,Acu-Link.com,2013-04-06 00:58:00,
2013-04-05 21:13:00,44.1,24.1,29.85,NW,315,8.3,-999.0,45,-99.99,,,0.00,Acu-Link.com,2013-04-06 01:13:00,
2013-04-05 21:28:00,42.8,25.0,29.85,WNW,292,19.1,-999.0,49,-99.99,,,0.00,Acu-Link.com,2013-04-06 01:28:00,
2013-04-05 21:44:00,41.7,24.4,29.87,WNW,292,11.4,-999.0,50,-99.99,,,0.00,Acu-Link.com,2013-04-06 01:44:00,
2013-04-05 22:29:00,40.1,24.4,29.88,West,270,4.7,-999.0,53,-99.99,,,0.00,Acu-Link.com,2013-04-06 02:29:00,
2013-04-05 22:44:00,39.4,23.7,29.89,WSW,247,2.2,-999.0,53,-99.99,,,0.00,Acu-Link.com,2013-04-06 02:44:00,
2013-04-05 23:00:00,39.2,23.5,29.89,WSW,247,5.8,-999.0,53,-99.99,,,0.00,Acu-Link.com,2013-04-06 03:00:00,
2013-04-05 23:15:00,39.0,23.3,29.89,WSW,247,9.9,-999.0,53,-99.99,,,0.00,Acu-Link.com,2013-04-06 03:15:00,
2013-04-05 23:30:00,38.8,23.2,29.90,West,270,5.3,-999.0,53,-99.99,,,0.00,Acu-Link.com,2013-04-06 03:30:00,
2013-04-05 23:45:00,38.5,22.4,29.90,West,270,8.9,-999.0,52,-99.99,,,0.00,Acu-Link.com,2013-04-06 03:45:00,